Voltar ao catálogo

Grifon-1

AtivoCiênciaSSO
NORAD 67281·PAYLOAD·🇷🇺 Russia

Lançado Dec 28, 2025 de Vostochny Cosmodrome

Loading…

Próximas Passagens (próximas 24 horas)

TLE

AtualizadoSource: Space-Track

Época: Sep 14, 2026, 10:17 UTC

1 67281U 25313AK  26257.42895032  .00003923  00000-0  16818-3 0  9997
2 67281  97.3807 330.4642 0012932  52.5007 307.7403 15.23261856 39531

Acompanhe Grifon-1 em tempo real com AllMySat

Download on the App Store